Location: ?
(35.6144°N, 139.6873°E)
Time: 16:17:16
(UTC+00:00)

OAO 2 Rocket - Pass Details

Date: 23 May 2024
Orbit: 672 x 740 km, 35.0° (Epoch: 15 June)

Event Time Altitude Azimuth Distance (km) Brightness Sun altitude
Rises 10:11:40 0° 275° (W) 3,163 8.1 -5.5°
Reaches altitude 10° 10:14:07 10° 274° (W) 2,240 7.1 -5.9°
Maximum altitude 10:19:24 76° 190° (S) 759 3.5 -6.9°
Drops below altitude 10° 10:24:37 10° 105° (ESE) 2,219 5.3 -7.8°
Enters shadow 10:25:00 - 105° (ESE) 2,359 5.4 -7.8°
